Simultaneous Nadir Overpasses (SNOs) Predictions

Prediction of SNOs between LANDSAT-8 and METOP-B Satellite Orbit:

Table of predicted SNOs for the next 14.0 days since TLE Epoch: 11/2/2024
Index Date (LANDSAT-8) Time (LANDSAT-8) Lat,Lon (LANDSAT-8) SZA (LANDSAT-8 ) Date (METOP-B) Time (METOP-B) Lat,Lon (METOP-B) SZA (METOP-B ) Distance(km) Time Diff (sec)
1 11/03/2024 06:41:43 81.41, 124.52 99.48 11/03/2024 06:40:42 81.41, 124.47 99.45 0.89 61
2 11/03/2024 07:31:10 -81.40, -67.89 80.52 11/03/2024 07:31:22 -81.41, -67.91 80.51 0.63 12
3 11/06/2024 02:16:36 80.69,-179.89 98.68 11/06/2024 02:15:24 81.05, 178.30 98.77 50.78 72
4 11/06/2024 03:05:33 -81.41, -1.41 79.66 11/06/2024 03:05:31 -81.41, -1.35 79.65 1.08 2
5 11/06/2024 03:54:59 81.41, 166.36 100.38 11/06/2024 03:56:10 81.42, 166.55 100.43 3.25 71
6 11/08/2024 22:39:58 -81.41, 65.03 78.84 11/08/2024 22:39:40 -81.41, 64.91 78.86 2.01 18
7 11/08/2024 23:29:24 81.42,-127.22 101.19 11/08/2024 23:30:19 81.41,-127.22 101.21 0.07 55
8 11/11/2024 18:14:24 -81.41, 131.42 78.07 11/11/2024 18:13:47 -81.41, 131.26 78.11 2.73 37
9 11/11/2024 19:03:50 81.42, -60.84 101.95 11/11/2024 19:04:26 81.41, -60.90 101.96 1.00 36
10 11/14/2024 13:48:53 -81.41,-162.23 77.35 11/14/2024 13:47:54 -81.41,-162.29 77.39 1.12 59



Historial Predications of SNOs between LANDSAT-8 and METOP-B
